This is the latest recevied weather packets stored in our database for station/object N4AR. If no packets are shown the sender has not sent any weather packets the latest 10 day(s).
| Time | Temp. | Humidity | Pressure | Rain* | Wind** | Luminosity | Snow |
|---|---|---|---|---|---|---|---|
| 1777934866 | 25.56° C | 31% | 1012.6 hPa | 0 mm | - | 88 W/m² | - |
| 1777934563 | 26.11° C | 30% | 1012.6 hPa | 0 mm | - | 128 W/m² | - |
| 1777934259 | 26.67° C | 30% | 1012.4 hPa | 0 mm | - | 159 W/m² | - |
| 1777933955 | 26.67° C | 30% | 1012.5 hPa | 0 mm | - | 174 W/m² | - |
| 1777933652 | 26.67° C | 30% | 1012.4 hPa | 0 mm | - | 184 W/m² | - |
| 1777933349 | 26.11° C | 30% | 1012.4 hPa | 0 mm | - | 195 W/m² | - |
| 1777933046 | 26.11° C | 30% | 1012.4 hPa | 0 mm | - | 217 W/m² | - |
| 1777932743 | 25.56° C | 30% | 1012.5 hPa | 0 mm | - | 229 W/m² | - |
| 1777932440 | 25.56° C | 31% | 1012.5 hPa | 0 mm | - | 191 W/m² | - |
| 1777932138 | 25.56° C | 32% | 1012.5 hPa | 0 mm | - | 164 W/m² | - |
| 1777931834 | 26.11° C | 30% | 1012.5 hPa | 0 mm | - | 72 W/m² | - |
| 1777931531 | 26.67° C | 28% | 1012.6 hPa | 0 mm | - | 83 W/m² | - |
| 1777931227 | 26.67° C | 28% | 1012.6 hPa | 0 mm | - | 216 W/m² | - |
| 1777930924 | 26.67° C | 28% | 1012.5 hPa | 0 mm | - | 303 W/m² | - |
| 1777930620 | 26.67° C | 28% | 1012.8 hPa | 0 mm | - | 363 W/m² | - |
| 1777930317 | 26.67° C | 27% | 1012.5 hPa | 0 mm | - | 384 W/m² | - |
| 1777930014 | 27.22° C | 27% | 1012.5 hPa | 0 mm | - | 406 W/m² | - |
| 1777929710 | 27.78° C | 27% | 1012.6 hPa | 0 mm | - | 426 W/m² | - |
| 1777929408 | 27.78° C | 27% | 1012.4 hPa | 0 mm | - | 440 W/m² | - |
| 1777929104 | 27.78° C | 28% | 1012.6 hPa | 0 mm | - | 472 W/m² | - |
| 1777928802 | 27.78° C | 26% | 1012.6 hPa | 0 mm | - | 491 W/m² | - |
| 1777928498 | 27.78° C | 27% | 1012.4 hPa | 0 mm | - | 517 W/m² | - |
| 1777928196 | 27.78° C | 27% | 1012.5 hPa | 0 mm | - | 539 W/m² | - |
| 1777927893 | 28.33° C | 26% | 1012.6 hPa | 0 mm | - | 549 W/m² | - |
| 1777927591 | 27.78° C | 27% | 1012.4 hPa | 0 mm | - | 558 W/m² | - |
* Rain latest hour (hover to see other rain measurements)
** Current wind speed in m/s (hover to see current wind gust speed)